Arctic Village, AK

7:50 AM AKDT on October 17, 2017 (GMT -0800)
Arctic Village

Weather History for PARC - December, 2012

Change the Weather History Date:

Tuesday, December 4, 2012

  Actual Average Record
Temperature  
Mean Temperature -28 °F -  
Max Temperature -23 °F -1 °F 30 °F (1962)
Min Temperature -34 °F -23 °F -49 °F (1970)
Degree Days  
Heating Degree Days 94    
Moisture  
Dew Point -    
Average Humidity    
Maximum Humidity    
Minimum Humidity    
Precipitation  
Precipitation 0.00 in - - ()
Sea Level Pressure  
Sea Level Pressure 29.94 in    
Wind  
Wind Speed 0 mph (North)    
Max Wind Speed 0 mph    
Max Gust Speed -    
Visibility 10 miles    
Events      
Averages and records for this station are not official NWS values.
T = Trace of Precipitation, MM = Missing Value Source: NWS Daily Summary

Daily Weather History Graph

Daily Weather History Graph

Search for Another Location

Airport or City:

Trip Planner

Search our weather history database for the weather conditions in past years. The results will help you decide how hot, cold, wet, or windy it might be!

Date:

Astronomy

Dec. 04, 2012 Rise Set
Actual Time 11:50 AM AKST 1:15 PM AKST
Civil Twilight 9:37 AM AKST 3:27 PM AKST
Nautical Twilight 8:12 AM AKST 4:52 PM AKST
Astronomical Twilight 7:01 AM AKST 6:03 PM AKST
Moon 10:22 PM AKST (12/4) 12:50 PM AKST (12/4)
Length of Visible Light 5h 50m
Length of Day
1h 25m
Waning Gibbous, 68% of the Moon is Illuminated
Dec 4
Waning Gibbous
Dec 6
Last Quarter
Dec 12
New
Dec 19
First Quarter
Dec 28
Full

Hourly Weather History & Observations

Time (AKST) Temp. Dew Point Humidity Pressure Visibility Wind Dir Wind Speed Gust Speed Precip Events Conditions
12:16 AM -25.6 °F - N/A% 29.99 in 10.0 mi Calm Calm - N/A   Clear
12:36 AM -27.4 °F - N/A% 30.00 in 10.0 mi Calm Calm - N/A   Clear
12:56 AM -29.2 °F - N/A% 30.00 in 9.0 mi Calm Calm - N/A   Clear
1:16 AM -29.2 °F - N/A% 30.00 in 10.0 mi Calm Calm - N/A   Clear
1:36 AM -29.2 °F - N/A% 30.00 in 10.0 mi Calm Calm - N/A   Clear
1:56 AM -29.2 °F - N/A% 29.99 in 8.0 mi Calm Calm - N/A   Clear
2:16 AM -27.4 °F - N/A% 29.99 in 10.0 mi Calm Calm - N/A   Clear
2:36 AM -32.8 °F - N/A% 29.98 in 10.0 mi Calm Calm - N/A   Clear
2:56 AM -27.4 °F - N/A% 29.98 in 10.0 mi Calm Calm - N/A   Clear
3:16 AM -23.8 °F - N/A% 29.98 in 10.0 mi Calm Calm - N/A   Clear
3:36 AM -32.8 °F - N/A% 29.98 in 10.0 mi Calm Calm - N/A   Clear
3:56 AM -32.8 °F - N/A% 29.97 in 10.0 mi Calm Calm - N/A   Clear
4:16 AM -27.4 °F - N/A% 29.97 in 10.0 mi Calm Calm - N/A   Clear
4:36 AM -31.0 °F - N/A% 29.96 in 10.0 mi Calm Calm - N/A   Clear
4:56 AM -32.8 °F - N/A% 29.97 in 10.0 mi Calm Calm - N/A   Clear
5:16 AM -29.2 °F - N/A% 29.96 in 10.0 mi Calm Calm - N/A   Clear
5:36 AM -29.2 °F - N/A% 29.97 in 10.0 mi Calm Calm - N/A   Clear
5:56 AM -25.6 °F - N/A% 29.96 in 10.0 mi Calm Calm - N/A   Clear
6:16 AM -34.6 °F - N/A% 29.96 in 10.0 mi Calm Calm - N/A   Clear
6:36 AM -29.2 °F - N/A% 29.96 in 10.0 mi Calm Calm - N/A   Clear
6:56 AM -29.2 °F - N/A% 29.96 in 10.0 mi Calm Calm - N/A   Clear
7:16 AM -32.8 °F - N/A% 29.95 in 10.0 mi Calm Calm - N/A   Clear
7:36 AM -25.6 °F - N/A% 29.95 in 10.0 mi Calm Calm - N/A   Clear
7:56 AM -31.0 °F - N/A% 29.95 in 10.0 mi Calm Calm - N/A   Clear
8:16 AM -27.4 °F - N/A% 29.95 in 10.0 mi Calm Calm - N/A   Clear
8:36 AM -32.8 °F - N/A% 29.96 in 10.0 mi Calm Calm - N/A   Clear
8:56 AM -25.6 °F - N/A% 29.95 in 10.0 mi Calm Calm - N/A   Clear
9:16 AM -25.6 °F - N/A% 29.95 in 10.0 mi Calm Calm - N/A   Clear
9:36 AM -29.2 °F - N/A% 29.95 in 10.0 mi Calm Calm - N/A   Clear
9:56 AM -27.4 °F - N/A% 29.95 in 10.0 mi Calm Calm - N/A   Clear
10:16 AM -25.6 °F - N/A% 29.95 in 10.0 mi Calm Calm - N/A   Clear
10:36 AM -27.4 °F - N/A% 29.94 in 10.0 mi Calm Calm - N/A   Clear
10:56 AM -34.6 °F - N/A% 29.95 in 10.0 mi Calm Calm - N/A   Clear
11:16 AM -32.8 °F - N/A% 29.95 in 10.0 mi Calm Calm - N/A   Clear
11:36 AM -29.2 °F - N/A% 29.94 in 10.0 mi Calm Calm - N/A   Clear
11:56 AM -23.8 °F - N/A% 29.94 in 2.0 mi Calm Calm - N/A   Clear
12:16 PM -25.6 °F - N/A% 29.94 in 10.0 mi Calm Calm - N/A   Clear
12:36 PM -34.6 °F - N/A% 29.94 in 10.0 mi Calm Calm - N/A   Clear
12:56 PM -29.2 °F - N/A% 29.93 in 9.0 mi Calm Calm - N/A   Clear
1:16 PM -32.8 °F - N/A% 29.93 in 9.0 mi Calm Calm - N/A   Clear
1:36 PM -32.8 °F - N/A% 29.93 in 10.0 mi Calm Calm - N/A   Clear
1:56 PM -32.8 °F - N/A% 29.92 in 10.0 mi Calm Calm - N/A   Clear
2:16 PM -32.8 °F - N/A% 29.92 in 10.0 mi Calm Calm - N/A   Clear
2:36 PM -29.2 °F - N/A% 29.91 in 10.0 mi Calm Calm - N/A   Clear
2:56 PM -29.2 °F - N/A% 29.91 in 9.0 mi Calm Calm - N/A   Clear
3:16 PM -27.4 °F - N/A% 29.91 in 10.0 mi Calm Calm - N/A   Clear
3:36 PM -29.2 °F - N/A% 29.90 in 10.0 mi Calm Calm - N/A   Clear
3:56 PM -32.8 °F - N/A% 29.90 in 10.0 mi Calm Calm - N/A   Clear
4:16 PM -27.4 °F - N/A% 29.90 in 10.0 mi Calm Calm - N/A   Clear
4:36 PM -32.8 °F - N/A% 29.90 in 10.0 mi Calm Calm - N/A   Clear
4:56 PM -27.4 °F - N/A% 29.90 in 10.0 mi Calm Calm - N/A   Clear
5:16 PM -27.4 °F - N/A% 29.90 in 10.0 mi Calm Calm - N/A   Clear
5:36 PM -29.2 °F - N/A% 29.90 in 10.0 mi Calm Calm - N/A   Clear
5:56 PM -31.0 °F - N/A% 29.90 in 10.0 mi Calm Calm - N/A   Clear
6:16 PM -29.2 °F - N/A% 29.90 in 10.0 mi Calm Calm - N/A   Clear
6:36 PM -25.6 °F - N/A% 29.90 in 10.0 mi Calm Calm - N/A   Clear
6:56 PM -29.2 °F - N/A% 29.90 in 10.0 mi Calm Calm - N/A   Clear
7:16 PM -32.8 °F - N/A% 29.90 in 10.0 mi Calm Calm - N/A   Clear
7:36 PM -32.8 °F - N/A% 29.90 in 10.0 mi Calm Calm - N/A   Clear
7:56 PM -29.2 °F - N/A% 29.90 in 10.0 mi Calm Calm - N/A   Clear
8:16 PM -29.2 °F - N/A% 29.90 in 10.0 mi Calm Calm - N/A   Clear
8:36 PM -31.0 °F - N/A% 29.90 in 10.0 mi Calm Calm - N/A   Clear
8:56 PM -29.2 °F - N/A% 29.90 in 10.0 mi Calm Calm - N/A   Clear
9:16 PM -29.2 °F - N/A% 29.90 in 10.0 mi Calm Calm - N/A   Clear
9:36 PM -29.2 °F - N/A% 29.90 in 10.0 mi Calm Calm - N/A   Partly Cloudy
9:56 PM -27.4 °F - N/A% 29.90 in 10.0 mi Calm Calm - N/A   Clear
10:16 PM -27.4 °F - N/A% 29.90 in 10.0 mi Calm Calm - N/A   Clear
10:36 PM -29.2 °F - N/A% 29.89 in 10.0 mi Calm Calm - N/A   Clear
10:56 PM -29.2 °F - N/A% 29.90 in 10.0 mi Calm Calm - N/A   Clear
11:16 PM -31.0 °F - N/A% 29.89 in 8.0 mi Calm Calm - N/A   Clear
11:36 PM -27.4 °F - N/A% 29.88 in 10.0 mi Calm Calm - N/A   Clear
11:56 PM -31.0 °F - N/A% 29.88 in 10.0 mi Calm Calm - N/A   Clear